Location: Augustenthal
(51.7167°N, 10.2833°E)
Time: 01:00:15
(UTC+00:00)

ISS - Pass Details

Date: 25 September 2021
Orbit: 417 x 423 km, 51.6° (Epoch: 19 October)

Event Time Altitude Azimuth Distance (km) Brightness Sun altitude
Rises 18:06:46 0° 263° (W) 2,362 1.7 -9.6°
Reaches altitude 10° 18:08:52 10° 263° (W) 1,499 0.4 -9.9°
Maximum altitude 18:12:14 88° 176° (S) 425 -3.8 -10.4°
Enters shadow 18:14:49 16° 85° (E) 1,183 -2.1 -10.8°
